Location: Borgo
(42.3939°N, 9.2791°E)
Time: 21:38:27
(UTC+00:00)

IRS-1C Rocket - Pass Details

Date: 24 January 2021
Orbit: 801 x 805 km, 99.0° (Epoch: 03 March)

Event Time Altitude Azimuth Distance (km) Brightness Sun altitude
Rises 17:43:25 0° 163° (SSE) 3,296 7.2 -14.2°
Reaches altitude 10° 17:45:44 10° 162° (SSE) 2,370 6.5 -14.6°
Maximum altitude 17:50:59 86° 75° (ENE) 809 4.0 -15.6°
Drops below altitude 10° 17:56:16 10° 347° (NNW) 2,386 6.6 -16.5°
Sets 17:58:36 0° 347° (NNW) 3,321 7.3 -16.9°
